Home > Weather > Groningen > Past weeks

Flag for Netherlands Past Weather in Groningen, Netherlands — Yesterday and Last 2 Weeks

Now
66 °F

Scattered clouds.


Feels Like: 66 °F
Forecast: 64 / 77 °F
Wind: 8 mph from Northeast

Location: Groningen Eelde Airport

Current Time: Aug 27, 2016 at 10:31:12 AM

Latest Report: Aug 27, 2016 at 9:55 AM


Visibility: N/A

Pressure: 30.15 "Hg

Humidity: 88%

Dew Point: 63 °F

Location of GroningenLocation

Past Weather in Groningen — Graph

°F

Groningen Temperature Yesterday

Maximum temperature yesterday: 79 °F (at 12:25 PM)
Minimum temperature yesterday: 61 °F (at 11:55 PM)
Average temperature yesterday: 70 °F

High & Low Weather Summary for the Past Weeks

 TemperatureHumidityPressure
High88 °F (Aug 25, 3:25 PM)100% (Aug 12, 9:25 AM)30.30 "Hg (Aug 12, 9:25 AM)
Low45 °F (Aug 16, 4:25 AM)40% (Aug 24, 2:55 PM)29.74 "Hg (Aug 19, 11:25 PM)
Average64 °F82%30.06 "Hg
* Reported Aug 12 9:25 AM — Aug 27 9:25 AM, Groningen, Weather by CustomWeather, © 2016

Note: Actual official high and low records may vary slightly from our data, if they occured in-between our weather recording intervals... More about our weather records

Advertising

Groningen Weather History for the Previous 24 Hours

Scroll right to see more
 ConditionsComfort  
Time TempWeatherWind HumidityBarometerVisibility
9:25 AM
Sat, Aug 27
66 °FScattered clouds.8 mph88%30.15 "HgN/A
8:55 AM64 °FMild.6 mph94%30.15 "Hg5 mi
8:25 AM63 °FFog.5 mph94%30.15 "Hg3 mi
7:55 AM61 °FFog.3 mph100%30.15 "Hg2 mi
7:25 AM59 °FFog.2 mph100%30.15 "Hg2 mi
6:55 AM57 °FFog.2 mph100%30.15 "Hg3 mi
6:25 AM57 °FFog.2 mph100%30.15 "Hg3 mi
5:55 AM59 °FFog.2 mph100%30.15 "Hg3 mi
5:25 AM59 °FClear.2 mph100%30.15 "Hg4 mi
4:55 AM59 °FClear.1 mph100%30.15 "HgN/A
4:25 AM59 °FClear.2 mph100%30.15 "Hg5 mi
3:55 AM59 °FClear.2 mph100%30.15 "Hg4 mi
3:25 AM59 °FClear.2 mph100%30.15 "Hg4 mi
2:55 AM59 °FClear.1 mph100%30.15 "Hg6 mi
2:25 AM59 °FClear.3 mph100%30.12 "HgN/A
1:55 AM59 °FClear.2 mph100%30.12 "HgN/A
1:25 AM59 °FClear.1 mph100%30.12 "HgN/A
12:55 AM61 °FClear.1 mph94%30.12 "HgN/A
12:25 AM61 °FClear.2 mph94%30.12 "HgN/A
11:55 PM
Fri, Aug 26
61 °FCool.3 mph94%30.12 "HgN/A
11:25 PM63 °FMild.5 mph88%30.12 "HgN/A
10:55 PM64 °FMild.6 mph88%30.12 "HgN/A
10:25 PM63 °FMild.5 mph88%30.12 "HgN/A
9:55 PM64 °FMild.6 mph88%30.09 "HgN/A
9:25 PM64 °FMild.6 mph88%30.09 "HgN/A
8:55 PM64 °FClear.3 mph88%30.09 "HgN/A
8:25 PM66 °FClear.7 mph83%30.09 "HgN/A
7:55 PM70 °FClear.8 mph78%30.07 "HgN/A
7:25 PM70 °FClear.7 mph78%30.07 "HgN/A
6:55 PM72 °FClear.8 mph78%30.07 "HgN/A
6:25 PM73 °FClear.8 mph74%30.07 "HgN/A
5:55 PM73 °FClear.7 mph74%30.07 "HgN/A
5:25 PM75 °FClear.7 mph69%30.07 "HgN/A
4:55 PM75 °FClear.6 mph65%30.07 "HgN/A
4:25 PM75 °FMild.6 mph61%30.07 "HgN/A
3:55 PM75 °FClear.7 mph69%30.07 "HgN/A
3:25 PM75 °FMild.9 mph69%30.04 "HgN/A
2:55 PM77 °FWarm.10 mph69%30.04 "HgN/A
2:25 PM75 °FPassing clouds.14 mph74%30.04 "HgN/A
1:55 PM77 °FClear.10 mph69%30.04 "HgN/A
1:25 PM79 °FWarm.9 mph65%30.01 "HgN/A
12:55 PM79 °FPassing clouds.8 mph70%30.01 "HgN/A
12:25 PM79 °FWarm.8 mph70%30.01 "HgN/A
11:55 AM77 °FClear.7 mph69%29.98 "HgN/A
11:25 AM75 °FMild.6 mph74%29.98 "Hg6 mi
10:55 AM75 °FClear.12 mph74%29.98 "Hg4 mi
10:25 AM75 °FMild.9 mph74%29.98 "Hg5 mi
Weather by CustomWeather, © 2016

See weather overviewHow to use our weather pages